DAL179 RJCC-ZGGG

Flight info

Callsign DAL179
Flight time 5h 12m
Altitude 34000
Route HWE Y12 TAPPI Z16 MIHOU Y14 DGC/N0468F360 Y28 ISAKY Y592 POTET A593 LAMEN/K0870F360 A593 AKARA/K0869S1100 A593 PUD A599 PLT W19 OLPAB OLPAB9
Aircraft B738/M-SDE2E3FGHIRWXY/LB1

Departure

Time 2026-04-28 08:17
Airport New Chitose Airport (RJCC)

Arrival

Time 2026-04-28 13:30
Airport Guangzhou Baiyun International Airport (ZGGG)
Time Latitude Longitude Altitude Speed Heading
2026-04-28 07:43 42.78731 141.68263 88 ft 0 kts 272°
2026-04-28 08:08 42.78730 141.68286 88 ft 4 kts 272°
2026-04-28 08:08 42.78730 141.68323 87 ft 4 kts 268°
2026-04-28 08:09 42.78732 141.68360 87 ft 4 kts 263°
2026-04-28 08:09 42.78736 141.68396 89 ft 4 kts 253°
2026-04-28 08:09 42.78741 141.68415 90 ft 1 kts 247°
2026-04-28 08:09 42.78742 141.68418 90 ft 0 kts 247°
2026-04-28 08:11 42.78741 141.68417 90 ft 1 kts 244°
2026-04-28 08:11 42.78729 141.68419 88 ft 5 kts 169°
2026-04-28 08:11 42.78675 141.68432 87 ft 10 kts 171°
2026-04-28 08:12 42.78594 141.68450 87 ft 13 kts 170°
2026-04-28 08:12 42.78504 141.68464 85 ft 16 kts 177°
2026-04-28 08:12 42.78387 141.68479 87 ft 18 kts 173°
2026-04-28 08:12 42.78251 141.68504 87 ft 21 kts 173°
2026-04-28 08:13 42.78097 141.68531 86 ft 24 kts 172°
2026-04-28 08:13 42.77957 141.68557 84 ft 18 kts 172°
2026-04-28 08:13 42.77822 141.68579 82 ft 21 kts 173°
2026-04-28 08:13 42.77667 141.68605 83 ft 24 kts 173°
2026-04-28 08:14 42.77558 141.68656 77 ft 17 kts 139°
2026-04-28 08:14 42.77485 141.68797 77 ft 20 kts 140°
2026-04-28 08:14 42.77345 141.68847 69 ft 23 kts 173°
2026-04-28 08:14 42.77180 141.68876 67 ft 25 kts 172°
2026-04-28 08:15 42.76998 141.68910 70 ft 28 kts 172°
2026-04-28 08:15 42.76799 141.68946 65 ft 30 kts 172°
2026-04-28 08:15 42.76585 141.68983 63 ft 32 kts 173°
2026-04-28 08:15 42.76371 141.69020 63 ft 17 kts 172°
2026-04-28 08:16 42.76311 141.69054 64 ft 11 kts 135°
2026-04-28 08:16 42.76261 141.69150 64 ft 14 kts 113°
2026-04-28 08:16 42.76282 141.69250 65 ft 11 kts 21°
2026-04-28 08:16 42.76379 141.69241 62 ft 27 kts 353°
2026-04-28 08:17 42.76808 141.69164 66 ft 96 kts 352°
2026-04-28 08:17 42.77664 141.69012 96 ft 150 kts 352°
2026-04-28 08:17 42.78741 141.68826 711 ft 156 kts 353°
2026-04-28 08:17 42.79821 141.68662 1603 ft 155 kts 354°
2026-04-28 08:18 42.80922 141.68855 2196 ft 177 kts 19°
2026-04-28 08:18 42.81965 141.70003 2425 ft 213 kts 51°
2026-04-28 08:18 42.82435 141.72043 2791 ft 241 kts 86°
2026-04-28 08:18 42.82005 141.74362 3094 ft 270 kts 120°
2026-04-28 08:19 42.80639 141.76142 3784 ft 276 kts 157°
2026-04-28 08:19 42.78794 141.76569 4705 ft 270 kts 193°
2026-04-28 08:19 42.77130 141.75561 5593 ft 262 kts 220°
2026-04-28 08:19 42.75637 141.74102 6389 ft 268 kts 217°
2026-04-28 08:20 42.74122 141.72607 7175 ft 270 kts 221°
2026-04-28 08:20 42.72604 141.71071 7987 ft 273 kts 218°
2026-04-28 08:20 42.71026 141.69602 8799 ft 276 kts 217°
2026-04-28 08:20 42.69418 141.68152 9632 ft 278 kts 218°
2026-04-28 08:21 42.67822 141.66637 10352 ft 283 kts 219°
2026-04-28 08:21 42.66151 141.65036 10587 ft 306 kts 219°
2026-04-28 08:21 42.64346 141.63319 10783 ft 328 kts 218°
2026-04-28 08:21 42.62411 141.61496 11012 ft 347 kts 218°
2026-04-28 08:22 42.60396 141.59610 11582 ft 355 kts 218°
2026-04-28 08:22 42.58360 141.57712 12385 ft 355 kts 218°
2026-04-28 08:22 42.56327 141.55816 13244 ft 355 kts 219°
2026-04-28 08:22 42.54293 141.53919 13999 ft 356 kts 219°
2026-04-28 08:23 42.52257 141.52021 14788 ft 352 kts 220°
2026-04-28 08:23 42.50238 141.50141 15549 ft 353 kts 220°
2026-04-28 08:23 42.48204 141.48244 16093 ft 358 kts 219°
2026-04-28 08:23 42.46172 141.46351 16683 ft 361 kts 219°
2026-04-28 08:24 42.44096 141.44418 17314 ft 363 kts 219°
2026-04-28 08:24 42.42006 141.42475 17925 ft 366 kts 219°
2026-04-28 08:24 42.39868 141.40489 18482 ft 369 kts 219°
2026-04-28 08:24 42.37768 141.38541 18997 ft 372 kts 219°
2026-04-28 08:25 42.35629 141.36559 19523 ft 374 kts 219°
2026-04-28 08:25 42.33472 141.34561 20033 ft 377 kts 219°
2026-04-28 08:25 42.31302 141.32553 20532 ft 380 kts 219°
2026-04-28 08:26 42.26926 141.28509 21617 ft 382 kts 219°
2026-04-28 08:26 42.24722 141.26475 22101 ft 385 kts 219°
2026-04-28 08:26 42.22505 141.24429 22541 ft 388 kts 219°
2026-04-28 08:26 42.20266 141.22366 22996 ft 391 kts 219°
2026-04-28 08:27 42.18015 141.20293 23451 ft 393 kts 219°
2026-04-28 08:27 42.15749 141.18208 23832 ft 395 kts 219°
2026-04-28 08:27 42.13472 141.16115 24232 ft 397 kts 219°
2026-04-28 08:27 42.11189 141.14019 24626 ft 398 kts 219°
2026-04-28 08:28 42.08897 141.11917 25006 ft 399 kts 219°
2026-04-28 08:28 42.06597 141.09809 25385 ft 401 kts 219°
2026-04-28 08:28 42.04293 141.07698 25758 ft 402 kts 219°
2026-04-28 08:28 42.01977 141.05579 26126 ft 403 kts 220°
2026-04-28 08:29 41.99659 141.03460 26478 ft 404 kts 220°
2026-04-28 08:29 41.97332 141.01334 26825 ft 405 kts 220°
2026-04-28 08:29 41.94997 140.99203 27142 ft 406 kts 220°
2026-04-28 08:29 41.92660 140.97072 27549 ft 405 kts 220°
2026-04-28 08:30 41.90333 140.94954 28060 ft 402 kts 220°
2026-04-28 08:30 41.88029 140.92860 28642 ft 398 kts 220°
2026-04-28 08:30 41.85746 140.90784 29168 ft 395 kts 221°
2026-04-28 08:30 41.83480 140.88723 29658 ft 391 kts 221°
2026-04-28 08:31 41.81258 140.86709 30440 ft 380 kts 222°
2026-04-28 08:31 41.79078 140.84733 30879 ft 377 kts 223°
2026-04-28 08:31 41.76913 140.82742 31126 ft 376 kts 224°
2026-04-28 08:31 41.74828 140.80638 31414 ft 375 kts 226°
2026-04-28 08:32 41.72788 140.78475 31679 ft 374 kts 227°
2026-04-28 08:32 41.70757 140.76295 31979 ft 374 kts 227°
2026-04-28 08:32 41.68728 140.74121 32326 ft 372 kts 227°
2026-04-28 08:32 41.66705 140.71963 32650 ft 372 kts 227°
2026-04-28 08:33 41.64680 140.69815 32938 ft 372 kts 227°
2026-04-28 08:33 41.62652 140.67673 33206 ft 372 kts 227°
2026-04-28 08:33 41.60618 140.65530 33463 ft 372 kts 227°
2026-04-28 08:33 41.58589 140.63397 33805 ft 370 kts 227°
2026-04-28 08:34 41.56562 140.61270 33916 ft 373 kts 227°
2026-04-28 08:34 41.52462 140.56971 33934 ft 375 kts 227°
2026-04-28 08:35 41.48418 140.52748 33932 ft 369 kts 227°
2026-04-28 08:35 41.44394 140.48549 33926 ft 365 kts 228°
2026-04-28 08:36 41.40417 140.44404 33934 ft 361 kts 228°
2026-04-28 08:36 41.36472 140.40296 33933 ft 358 kts 228°
2026-04-28 08:37 41.32554 140.36223 33943 ft 356 kts 228°
2026-04-28 08:37 41.28656 140.32176 33944 ft 355 kts 228°
2026-04-28 08:38 41.24764 140.28142 33946 ft 355 kts 228°
2026-04-28 08:38 41.20870 140.24111 33946 ft 355 kts 228°
2026-04-28 08:39 41.16958 140.20068 33948 ft 357 kts 228°
2026-04-28 08:39 41.13030 140.16010 33934 ft 358 kts 229°
2026-04-28 08:40 41.09188 140.11839 33942 ft 357 kts 230°
2026-04-28 08:40 41.05374 140.07632 33937 ft 357 kts 230°
2026-04-28 08:41 41.01561 140.03444 33945 ft 356 kts 230°
2026-04-28 08:41 40.97752 139.99279 33912 ft 354 kts 230°
2026-04-28 08:42 40.93992 139.95179 33947 ft 352 kts 231°
2026-04-28 08:42 40.90227 139.91082 33950 ft 349 kts 231°
2026-04-28 08:43 40.86483 139.87012 33946 ft 347 kts 231°
2026-04-28 08:43 40.82756 139.82966 33947 ft 346 kts 231°
2026-04-28 08:44 40.79054 139.78955 33942 ft 343 kts 231°
2026-04-28 08:44 40.75368 139.74966 33947 ft 342 kts 231°
2026-04-28 08:45 40.71697 139.70999 33950 ft 341 kts 231°
2026-04-28 08:45 40.68036 139.67048 33937 ft 339 kts 232°
2026-04-28 08:46 40.64396 139.63127 33943 ft 337 kts 232°
2026-04-28 08:46 40.61383 139.59886 33952 ft 336 kts 232°
2026-04-28 08:47 40.57761 139.55992 33951 ft 336 kts 232°
2026-04-28 08:47 40.54146 139.52113 33950 ft 335 kts 232°
2026-04-28 08:48 40.50531 139.48238 33941 ft 335 kts 233°
2026-04-28 08:48 40.46924 139.44379 33957 ft 334 kts 233°
2026-04-28 08:49 40.43320 139.40528 33953 ft 334 kts 233°
2026-04-28 08:49 40.39714 139.36679 33953 ft 334 kts 233°
2026-04-28 08:50 40.36109 139.32837 33924 ft 334 kts 233°
2026-04-28 08:50 40.32502 139.29000 33948 ft 334 kts 233°
2026-04-28 08:51 40.28896 139.25171 33945 ft 333 kts 233°
2026-04-28 08:51 40.25290 139.21346 33950 ft 334 kts 233°
2026-04-28 08:52 40.21673 139.17513 33953 ft 335 kts 233°
2026-04-28 08:52 40.18045 139.13674 33954 ft 336 kts 233°
2026-04-28 08:53 40.14403 139.09825 33950 ft 337 kts 233°
2026-04-28 08:53 40.10773 139.05994 33951 ft 338 kts 233°
2026-04-28 08:54 40.07111 139.02136 33953 ft 339 kts 233°
2026-04-28 08:54 40.03444 138.98278 33945 ft 339 kts 233°
2026-04-28 08:55 39.99769 138.94417 33953 ft 339 kts 233°
2026-04-28 08:55 39.96086 138.90552 33951 ft 340 kts 233°
2026-04-28 08:56 39.92393 138.86682 33908 ft 341 kts 233°
2026-04-28 08:56 39.88694 138.82813 33935 ft 342 kts 233°
2026-04-28 08:57 39.84983 138.78934 33949 ft 343 kts 233°
2026-04-28 08:57 39.81255 138.75044 33949 ft 344 kts 233°
2026-04-28 08:58 39.77512 138.71145 33948 ft 345 kts 233°
2026-04-28 08:58 39.73757 138.67239 33947 ft 346 kts 233°
2026-04-28 08:59 39.69991 138.63328 33948 ft 346 kts 233°
2026-04-28 08:59 39.66226 138.59424 33947 ft 346 kts 233°
2026-04-28 09:00 39.62462 138.55526 33947 ft 346 kts 233°
2026-04-28 09:00 39.58703 138.51639 33944 ft 345 kts 233°
2026-04-28 09:01 39.54952 138.47764 33955 ft 345 kts 233°
2026-04-28 09:01 39.51206 138.43900 33936 ft 344 kts 233°
2026-04-28 09:02 39.47454 138.40033 33948 ft 345 kts 233°
2026-04-28 09:02 39.43690 138.36161 33939 ft 346 kts 233°
2026-04-28 09:03 39.39912 138.32280 33952 ft 348 kts 233°
2026-04-28 09:03 39.36114 138.28382 33951 ft 350 kts 233°
2026-04-28 09:04 39.32295 138.24471 33945 ft 351 kts 233°
2026-04-28 09:04 39.28571 138.20452 33942 ft 342 kts 238°
2026-04-28 09:05 39.25457 138.15917 33945 ft 337 kts 241°
2026-04-28 09:05 39.22368 138.11342 33946 ft 339 kts 241°
2026-04-28 09:06 39.19282 138.06789 33940 ft 340 kts 240°
2026-04-28 09:06 39.16143 138.02172 33931 ft 340 kts 240°
2026-04-28 09:07 39.13039 137.97616 33946 ft 341 kts 240°
2026-04-28 09:07 39.09907 137.93025 33921 ft 341 kts 240°
2026-04-28 09:08 39.06774 137.88442 33933 ft 341 kts 240°
2026-04-28 09:08 39.03637 137.83857 33931 ft 341 kts 240°
2026-04-28 09:09 39.00492 137.79268 33943 ft 342 kts 240°
2026-04-28 09:09 38.97343 137.74680 33939 ft 342 kts 240°
2026-04-28 09:10 38.94188 137.70089 33932 ft 343 kts 240°
2026-04-28 09:10 38.91031 137.65503 33933 ft 343 kts 240°
2026-04-28 09:11 38.87870 137.60919 33932 ft 343 kts 240°
2026-04-28 09:11 38.84712 137.56345 33928 ft 342 kts 239°
2026-04-28 09:12 38.81555 137.51778 33936 ft 342 kts 239°
2026-04-28 09:12 38.78399 137.47221 33930 ft 341 kts 239°
2026-04-28 09:13 38.75268 137.42704 33928 ft 341 kts 239°
2026-04-28 09:13 38.72115 137.38162 33933 ft 341 kts 239°
2026-04-28 09:14 38.68957 137.33621 33932 ft 342 kts 239°
2026-04-28 09:14 38.65797 137.29082 33921 ft 342 kts 239°
2026-04-28 09:15 38.62632 137.24543 33925 ft 342 kts 239°
2026-04-28 09:15 38.59461 137.20001 33927 ft 343 kts 239°
2026-04-28 09:16 38.56279 137.15451 33929 ft 344 kts 239°
2026-04-28 09:16 38.53089 137.10896 33897 ft 344 kts 239°
2026-04-28 09:17 38.49895 137.06342 33917 ft 345 kts 240°
2026-04-28 09:17 38.46686 137.01772 33929 ft 346 kts 240°
2026-04-28 09:18 38.43467 136.97196 33920 ft 347 kts 240°
2026-04-28 09:18 38.40235 136.92607 33921 ft 348 kts 240°
2026-04-28 09:19 38.36996 136.88016 33920 ft 349 kts 240°
2026-04-28 09:19 38.33751 136.83423 33919 ft 349 kts 239°
2026-04-28 09:20 38.30503 136.78833 33894 ft 349 kts 240°
2026-04-28 09:20 38.27255 136.74249 33906 ft 349 kts 240°
2026-04-28 09:21 38.24007 136.69670 33919 ft 349 kts 240°
2026-04-28 09:21 38.20776 136.65120 33914 ft 349 kts 240°
2026-04-28 09:22 38.17497 136.60510 33892 ft 349 kts 240°
2026-04-28 09:22 38.14257 136.55963 33908 ft 350 kts 240°
2026-04-28 09:23 38.10984 136.51383 33915 ft 351 kts 240°
2026-04-28 09:23 38.07701 136.46798 33908 ft 351 kts 240°
2026-04-28 09:24 38.04408 136.42203 33899 ft 352 kts 240°
2026-04-28 09:24 38.01111 136.37608 33907 ft 353 kts 240°
2026-04-28 09:25 37.97804 136.33006 33907 ft 353 kts 240°
2026-04-28 09:25 37.94491 136.28401 33904 ft 354 kts 239°
2026-04-28 09:26 37.91176 136.23801 33899 ft 354 kts 239°
2026-04-28 09:26 37.87854 136.19198 33909 ft 354 kts 239°
2026-04-28 09:27 37.82862 136.12292 33909 ft 355 kts 239°
2026-04-28 09:27 37.79526 136.07685 33906 ft 355 kts 238°
2026-04-28 09:28 37.76189 136.03084 33911 ft 356 kts 238°
2026-04-28 09:28 37.72839 135.98471 33905 ft 357 kts 238°
2026-04-28 09:29 37.69478 135.93850 33908 ft 357 kts 238°
2026-04-28 09:29 37.66133 135.89257 33903 ft 358 kts 238°
2026-04-28 09:30 37.62761 135.84634 33912 ft 358 kts 238°
2026-04-28 09:30 37.59380 135.80006 33913 ft 359 kts 238°
2026-04-28 09:31 37.55971 135.75347 33898 ft 359 kts 238°
2026-04-28 09:31 37.52584 135.70724 33911 ft 359 kts 238°
2026-04-28 09:32 37.49215 135.66132 33911 ft 359 kts 237°
2026-04-28 09:32 37.45820 135.61512 33915 ft 359 kts 237°
2026-04-28 09:33 37.42425 135.56898 33899 ft 359 kts 237°
2026-04-28 09:33 37.39035 135.52297 33904 ft 359 kts 237°
2026-04-28 09:34 37.36188 135.48438 33919 ft 359 kts 237°
2026-04-28 09:34 37.32787 135.43834 33915 ft 360 kts 237°
2026-04-28 09:35 37.29402 135.39257 33922 ft 360 kts 237°
2026-04-28 09:35 37.25989 135.34650 33924 ft 361 kts 237°
2026-04-28 09:36 37.22564 135.30034 33922 ft 361 kts 237°
2026-04-28 09:36 37.19138 135.25423 33922 ft 362 kts 237°
2026-04-28 09:37 37.15706 135.20810 33925 ft 362 kts 237°
2026-04-28 09:37 37.12271 135.16201 33926 ft 362 kts 237°
2026-04-28 09:38 37.08830 135.11590 33902 ft 362 kts 236°
2026-04-28 09:38 37.05391 135.06987 33922 ft 362 kts 236°
2026-04-28 09:39 37.01949 135.02389 33929 ft 362 kts 236°
2026-04-28 09:39 36.98506 134.97794 33938 ft 362 kts 236°
2026-04-28 09:40 36.95058 134.93199 33930 ft 362 kts 236°
2026-04-28 09:40 36.91610 134.88610 33934 ft 362 kts 236°
2026-04-28 09:41 36.88154 134.84018 33938 ft 363 kts 236°
2026-04-28 09:41 36.84696 134.79430 33927 ft 363 kts 236°
2026-04-28 09:42 36.81235 134.74844 33940 ft 363 kts 236°
2026-04-28 09:42 36.77768 134.70256 33947 ft 364 kts 236°
2026-04-28 09:43 36.74292 134.65663 33949 ft 364 kts 236°
2026-04-28 09:43 36.70811 134.61070 33942 ft 365 kts 236°
2026-04-28 09:44 36.67346 134.56504 33948 ft 365 kts 236°
2026-04-28 09:44 36.63851 134.51906 33955 ft 366 kts 236°
2026-04-28 09:45 36.60352 134.47309 33943 ft 366 kts 236°
2026-04-28 09:45 36.56847 134.42710 33953 ft 366 kts 236°
2026-04-28 09:46 36.53336 134.38110 33959 ft 367 kts 236°
2026-04-28 09:46 36.49822 134.33512 33952 ft 367 kts 236°
2026-04-28 09:47 36.46300 134.28911 33963 ft 367 kts 236°
2026-04-28 09:47 36.42774 134.24310 33964 ft 368 kts 236°
2026-04-28 09:48 36.39242 134.19707 33964 ft 368 kts 235°
2026-04-28 09:48 36.35707 134.15109 33955 ft 368 kts 235°
2026-04-28 09:49 36.32168 134.10510 33951 ft 369 kts 235°
2026-04-28 09:49 36.28627 134.05913 33966 ft 369 kts 235°
2026-04-28 09:50 36.25078 134.01316 33955 ft 369 kts 235°
2026-04-28 09:50 36.21523 133.96718 33974 ft 370 kts 235°
2026-04-28 09:51 36.17954 133.92109 33979 ft 371 kts 235°
2026-04-28 09:51 36.14373 133.87489 33967 ft 372 kts 235°
2026-04-28 09:52 36.10782 133.82861 33980 ft 373 kts 235°
2026-04-28 09:52 36.07183 133.78230 33982 ft 374 kts 235°
2026-04-28 09:53 36.03572 133.73590 33981 ft 375 kts 235°
2026-04-28 09:53 35.99955 133.68949 33981 ft 375 kts 234°
2026-04-28 09:54 35.96336 133.64313 33983 ft 375 kts 234°
2026-04-28 09:54 35.92716 133.59680 33983 ft 375 kts 234°
2026-04-28 09:55 35.89097 133.55058 33976 ft 374 kts 234°
2026-04-28 09:55 35.85506 133.50475 33983 ft 374 kts 234°
2026-04-28 09:56 35.81869 133.45841 33982 ft 374 kts 234°
2026-04-28 09:56 35.78254 133.41240 33972 ft 373 kts 234°
2026-04-28 09:57 35.74639 133.36646 33968 ft 373 kts 234°
2026-04-28 09:57 35.71020 133.32053 33962 ft 374 kts 234°
2026-04-28 09:58 35.67423 133.27495 33938 ft 374 kts 233°
2026-04-28 09:58 35.63796 133.22904 33946 ft 374 kts 233°
2026-04-28 09:59 35.60160 133.18308 33944 ft 375 kts 233°
2026-04-28 09:59 35.56519 133.13711 33902 ft 376 kts 233°
2026-04-28 10:00 35.52891 133.09094 33950 ft 373 kts 236°
2026-04-28 10:00 35.49701 133.04110 33952 ft 372 kts 239°
2026-04-28 10:01 35.46573 132.99047 33949 ft 373 kts 239°
2026-04-28 10:01 35.43421 132.93983 33936 ft 373 kts 239°
2026-04-28 10:02 35.40255 132.88929 33941 ft 374 kts 238°
2026-04-28 10:02 35.37073 132.83869 33942 ft 375 kts 238°
2026-04-28 10:03 35.33878 132.78798 33922 ft 376 kts 238°
2026-04-28 10:03 35.30676 132.73726 33943 ft 377 kts 238°
2026-04-28 10:04 35.27466 132.68648 33959 ft 377 kts 238°
2026-04-28 10:04 35.24249 132.63566 33969 ft 378 kts 238°
2026-04-28 10:05 35.21027 132.58483 33979 ft 378 kts 238°
2026-04-28 10:05 35.17804 132.53406 33994 ft 377 kts 238°
2026-04-28 10:06 35.14604 132.48374 33981 ft 378 kts 238°
2026-04-28 10:06 35.11382 132.43313 33970 ft 377 kts 238°
2026-04-28 10:07 35.08165 132.38267 33993 ft 377 kts 238°
2026-04-28 10:07 35.04942 132.33218 33987 ft 377 kts 238°
2026-04-28 10:08 35.01716 132.28174 33993 ft 377 kts 238°
2026-04-28 10:08 34.98496 132.23144 33989 ft 376 kts 238°
2026-04-28 10:09 34.95275 132.18120 33997 ft 376 kts 238°
2026-04-28 10:09 34.92052 132.13101 33999 ft 376 kts 238°
2026-04-28 10:10 34.88828 132.08086 33997 ft 376 kts 238°
2026-04-28 10:10 34.85606 132.03082 33976 ft 376 kts 238°
2026-04-28 10:11 34.82378 131.98073 33996 ft 376 kts 238°
2026-04-28 10:11 34.79142 131.93074 33964 ft 376 kts 238°
2026-04-28 10:12 34.75899 131.88091 33968 ft 375 kts 237°
2026-04-28 10:12 34.72662 131.83121 33962 ft 375 kts 237°
2026-04-28 10:13 34.69428 131.78158 33969 ft 374 kts 237°
2026-04-28 10:13 34.66194 131.73202 33942 ft 374 kts 238°
2026-04-28 10:14 34.62959 131.68253 33962 ft 374 kts 238°
2026-04-28 10:14 34.59745 131.63339 33977 ft 374 kts 238°
2026-04-28 10:15 34.56496 131.58381 33979 ft 376 kts 237°
2026-04-28 10:15 34.53237 131.53413 33972 ft 377 kts 238°
2026-04-28 10:16 34.49973 131.48444 33991 ft 376 kts 238°
2026-04-28 10:16 34.46707 131.43480 33987 ft 377 kts 237°
2026-04-28 10:17 34.43442 131.38516 33981 ft 376 kts 238°
2026-04-28 10:17 34.40191 131.33567 33997 ft 375 kts 237°
2026-04-28 10:18 34.36938 131.28616 33987 ft 376 kts 237°
2026-04-28 10:18 34.33680 131.23668 33985 ft 376 kts 237°
2026-04-28 10:19 34.30412 131.18709 33964 ft 377 kts 237°
2026-04-28 10:19 34.27134 131.13745 33993 ft 378 kts 237°
2026-04-28 10:20 34.24404 131.09614 33978 ft 379 kts 237°
2026-04-28 10:20 34.20578 131.03833 33983 ft 379 kts 237°
2026-04-28 10:21 34.17066 130.99037 33972 ft 384 kts 232°
2026-04-28 10:21 34.13911 130.95201 33972 ft 385 kts 232°
2026-04-28 10:22 34.10136 130.90615 34002 ft 385 kts 232°
2026-04-28 10:22 34.06363 130.86019 33990 ft 386 kts 232°
2026-04-28 10:23 34.02593 130.81422 33971 ft 385 kts 232°
2026-04-28 10:23 33.98827 130.76831 33976 ft 385 kts 232°
2026-04-28 10:24 33.95055 130.72241 33980 ft 386 kts 232°
2026-04-28 10:24 33.91274 130.67643 33962 ft 386 kts 232°
2026-04-28 10:25 33.87484 130.63043 33990 ft 388 kts 232°
2026-04-28 10:25 33.83674 130.58423 33984 ft 390 kts 232°
2026-04-28 10:26 33.79847 130.53790 33987 ft 392 kts 232°
2026-04-28 10:26 33.76001 130.49138 33981 ft 393 kts 231°
2026-04-28 10:27 33.72162 130.44502 34001 ft 395 kts 231°
2026-04-28 10:27 33.68259 130.39791 34049 ft 402 kts 232°
2026-04-28 10:28 33.64710 130.34606 34304 ft 402 kts 238°
2026-04-28 10:28 33.63036 130.31920 34587 ft 401 kts 238°
2026-04-28 10:29 33.59717 130.26595 35236 ft 396 kts 238°
2026-04-28 10:29 33.58065 130.23967 35629 ft 392 kts 238°
2026-04-28 10:29 33.56427 130.21373 35965 ft 389 kts 238°
2026-04-28 10:30 33.53132 130.16168 35990 ft 392 kts 238°
2026-04-28 10:30 33.49845 130.10997 36003 ft 389 kts 238°
2026-04-28 10:31 33.46559 130.05834 36005 ft 390 kts 238°
2026-04-28 10:31 33.43266 130.00667 36023 ft 390 kts 238°
2026-04-28 10:32 33.39968 129.95500 36019 ft 390 kts 238°
2026-04-28 10:32 33.36671 129.90344 36012 ft 390 kts 238°
2026-04-28 10:33 33.33368 129.85183 36017 ft 391 kts 238°
2026-04-28 10:33 33.30059 129.80021 36025 ft 391 kts 237°
2026-04-28 10:34 33.26753 129.74871 36005 ft 390 kts 238°
2026-04-28 10:34 33.23446 129.69724 36021 ft 391 kts 237°
2026-04-28 10:35 33.20352 129.64421 36039 ft 387 kts 246°
2026-04-28 10:35 33.18260 129.58539 36034 ft 385 kts 251°
2026-04-28 10:36 33.16255 129.52603 36043 ft 386 kts 251°
2026-04-28 10:36 33.14228 129.46659 36039 ft 387 kts 250°
2026-04-28 10:37 33.12204 129.40751 36044 ft 388 kts 250°
2026-04-28 10:37 33.10144 129.34755 36068 ft 388 kts 250°
2026-04-28 10:38 33.08106 129.28833 36059 ft 389 kts 250°
2026-04-28 10:38 33.06050 129.22868 36052 ft 389 kts 250°
2026-04-28 10:39 33.03994 129.16916 36055 ft 388 kts 250°
2026-04-28 10:39 33.01938 129.10972 36081 ft 388 kts 250°
2026-04-28 10:40 32.99879 129.05033 36075 ft 388 kts 250°
2026-04-28 10:40 32.97819 128.99099 36066 ft 388 kts 250°
2026-04-28 10:41 32.95756 128.93167 36065 ft 387 kts 250°
2026-04-28 10:41 32.93693 128.87247 36070 ft 387 kts 250°
2026-04-28 10:42 32.91625 128.81322 36064 ft 387 kts 250°
2026-04-28 10:42 32.89556 128.75403 36061 ft 388 kts 250°
2026-04-28 10:43 32.87482 128.69478 36061 ft 388 kts 250°
2026-04-28 10:43 32.85415 128.63556 36063 ft 388 kts 250°
2026-04-28 10:44 32.83348 128.57641 36060 ft 387 kts 250°
2026-04-28 10:44 32.81278 128.51727 36073 ft 388 kts 250°
2026-04-28 10:45 32.79202 128.45809 36069 ft 388 kts 250°
2026-04-28 10:45 32.77122 128.39888 36079 ft 388 kts 250°
2026-04-28 10:46 32.75038 128.33966 36081 ft 389 kts 250°
2026-04-28 10:46 32.72948 128.28038 36073 ft 389 kts 250°
2026-04-28 10:47 32.70846 128.22110 36081 ft 390 kts 250°
2026-04-28 10:47 32.68743 128.16225 36099 ft 390 kts 250°
2026-04-28 10:48 32.66619 128.10289 36087 ft 391 kts 250°
2026-04-28 10:48 32.64493 128.04351 36086 ft 391 kts 250°
2026-04-28 10:49 32.62367 127.98423 36080 ft 390 kts 250°
2026-04-28 10:49 32.60235 127.92490 36096 ft 391 kts 250°
2026-04-28 10:50 32.58100 127.86556 36085 ft 392 kts 250°
2026-04-28 10:50 32.55959 127.80616 36087 ft 392 kts 250°
2026-04-28 10:51 32.53814 127.74679 36083 ft 392 kts 250°
2026-04-28 10:51 32.51665 127.68737 36098 ft 392 kts 250°
2026-04-28 10:52 32.49512 127.62798 36082 ft 392 kts 250°
2026-04-28 10:52 32.47361 127.56873 36082 ft 391 kts 250°
2026-04-28 10:53 32.45212 127.50963 36089 ft 391 kts 250°
2026-04-28 10:53 32.43062 127.45064 36101 ft 390 kts 250°
2026-04-28 10:54 32.40915 127.39180 36081 ft 389 kts 250°
2026-04-28 10:54 32.38773 127.33322 36085 ft 387 kts 250°
2026-04-28 10:55 32.36646 127.27514 36081 ft 387 kts 250°
2026-04-28 10:55 32.34493 127.21646 36108 ft 386 kts 250°
2026-04-28 10:56 32.32371 127.15869 36094 ft 385 kts 250°
2026-04-28 10:56 32.30235 127.10065 36077 ft 384 kts 250°
2026-04-28 10:57 32.28124 127.04270 36089 ft 383 kts 252°
2026-04-28 10:57 32.26699 126.98243 36120 ft 381 kts 258°
2026-04-28 10:58 32.25390 126.92172 36105 ft 382 kts 258°
2026-04-28 10:58 32.24060 126.86091 36101 ft 383 kts 258°
2026-04-28 10:59 32.22717 126.80007 36105 ft 383 kts 258°
2026-04-28 10:59 32.21370 126.73925 36112 ft 383 kts 258°
2026-04-28 11:00 32.20020 126.67840 36104 ft 383 kts 258°
2026-04-28 11:00 32.18680 126.61752 36114 ft 383 kts 258°
2026-04-28 11:01 32.17369 126.55657 36114 ft 383 kts 258°
2026-04-28 11:01 32.16056 126.49564 36124 ft 383 kts 258°
2026-04-28 11:02 32.14738 126.43478 36113 ft 383 kts 258°
2026-04-28 11:02 32.13416 126.37392 36115 ft 383 kts 258°
2026-04-28 11:03 32.12094 126.31323 36113 ft 382 kts 257°
2026-04-28 11:03 32.10769 126.25255 36117 ft 382 kts 257°
2026-04-28 11:04 32.09441 126.19188 36122 ft 382 kts 257°
2026-04-28 11:04 32.08108 126.13114 36116 ft 383 kts 257°
2026-04-28 11:05 32.06773 126.07042 36116 ft 383 kts 257°
2026-04-28 11:05 32.05675 126.01988 36120 ft 383 kts 258°
2026-04-28 11:06 32.04377 125.95900 36091 ft 383 kts 258°
2026-04-28 11:06 32.03075 125.89811 36113 ft 383 kts 258°
2026-04-28 11:07 32.01555 125.82731 36119 ft 384 kts 258°
2026-04-28 11:07 32.00235 125.76626 36118 ft 385 kts 257°
2026-04-28 11:08 31.99102 125.71512 36123 ft 386 kts 257°
2026-04-28 11:08 31.97738 125.65398 36121 ft 386 kts 257°
2026-04-28 11:09 31.96381 125.59318 36120 ft 387 kts 257°
2026-04-28 11:09 31.95014 125.53198 36103 ft 387 kts 257°
2026-04-28 11:10 31.93643 125.47075 36131 ft 387 kts 258°
2026-04-28 11:10 31.92269 125.40947 36120 ft 387 kts 258°
2026-04-28 11:11 31.90891 125.34819 36125 ft 387 kts 258°
2026-04-28 11:11 31.89509 125.28689 36125 ft 387 kts 258°
2026-04-28 11:12 31.88124 125.22559 36136 ft 387 kts 258°
2026-04-28 11:12 31.86737 125.16436 36126 ft 387 kts 258°
2026-04-28 11:13 31.85350 125.10327 36116 ft 386 kts 258°
2026-04-28 11:13 31.83963 125.04225 36125 ft 386 kts 258°
2026-04-28 11:14 31.82580 124.98127 36144 ft 386 kts 258°
2026-04-28 11:14 31.81255 124.92015 36129 ft 386 kts 258°
2026-04-28 11:15 31.79942 124.85905 36130 ft 386 kts 258°
2026-04-28 11:15 31.78621 124.79797 36128 ft 385 kts 258°
2026-04-28 11:16 31.77294 124.73694 36125 ft 385 kts 258°
2026-04-28 11:16 31.75974 124.67642 36123 ft 385 kts 258°
2026-04-28 11:17 31.74642 124.61550 36126 ft 385 kts 258°
2026-04-28 11:17 31.73308 124.55466 36130 ft 385 kts 258°
2026-04-28 11:18 31.71971 124.49383 36132 ft 385 kts 258°
2026-04-28 11:18 31.70631 124.43299 36134 ft 385 kts 258°
2026-04-28 11:19 31.69287 124.37212 36127 ft 385 kts 258°
2026-04-28 11:19 31.67940 124.31128 36133 ft 385 kts 258°
2026-04-28 11:20 31.66592 124.25053 36120 ft 384 kts 258°
2026-04-28 11:20 31.65241 124.18980 36149 ft 385 kts 258°
2026-04-28 11:21 31.63885 124.12898 36140 ft 385 kts 258°
2026-04-28 11:21 31.62525 124.06811 36139 ft 386 kts 258°
2026-04-28 11:22 31.61162 124.00726 36137 ft 386 kts 258°
2026-04-28 11:22 31.59817 123.94626 36157 ft 386 kts 258°
2026-04-28 11:23 31.58488 123.88525 36140 ft 386 kts 258°
2026-04-28 11:23 31.57156 123.82431 36138 ft 386 kts 258°
2026-04-28 11:24 31.55820 123.76345 36142 ft 385 kts 258°
2026-04-28 11:24 31.54492 123.70310 36138 ft 385 kts 258°
2026-04-28 11:25 31.53155 123.64249 36145 ft 384 kts 257°
2026-04-28 11:25 31.51816 123.58195 36140 ft 383 kts 257°
2026-04-28 11:26 31.50478 123.52154 36144 ft 383 kts 257°
2026-04-28 11:26 31.49206 123.46107 36144 ft 382 kts 259°
2026-04-28 11:27 31.48077 123.40037 36134 ft 381 kts 259°
2026-04-28 11:27 31.46952 123.33974 36135 ft 381 kts 259°
2026-04-28 11:28 31.45806 123.27902 36148 ft 382 kts 259°
2026-04-28 11:28 31.44647 123.21813 36149 ft 384 kts 259°
2026-04-28 11:29 31.43478 123.15703 36157 ft 385 kts 259°
2026-04-28 11:29 31.42301 123.09567 36147 ft 387 kts 259°
2026-04-28 11:30 31.41117 123.03413 36148 ft 388 kts 259°
2026-04-28 11:30 31.39334 122.94173 36152 ft 388 kts 259°
2026-04-28 11:31 31.38142 122.88013 36146 ft 388 kts 259°
2026-04-28 11:31 31.36956 122.81902 36148 ft 388 kts 259°
2026-04-28 11:32 31.35762 122.75753 36151 ft 387 kts 259°
2026-04-28 11:32 31.34589 122.69607 36152 ft 387 kts 259°
2026-04-28 11:33 31.33418 122.63460 36151 ft 387 kts 259°
2026-04-28 11:33 31.32242 122.57318 36153 ft 387 kts 259°
2026-04-28 11:34 31.31064 122.51182 36151 ft 386 kts 259°
2026-04-28 11:34 31.29884 122.45058 36152 ft 386 kts 259°
2026-04-28 11:35 31.28721 122.38936 36140 ft 385 kts 260°
2026-04-28 11:35 31.27577 122.32824 36155 ft 385 kts 259°
2026-04-28 11:36 31.26429 122.26714 36152 ft 385 kts 259°
2026-04-28 11:36 31.25277 122.20611 36149 ft 385 kts 259°
2026-04-28 11:37 31.24121 122.14505 36155 ft 385 kts 259°
2026-04-28 11:37 31.22961 122.08401 36158 ft 385 kts 259°
2026-04-28 11:38 31.21798 122.02295 36157 ft 385 kts 259°
2026-04-28 11:38 31.20632 121.96187 36144 ft 385 kts 259°
2026-04-28 11:39 31.19463 121.90079 36119 ft 385 kts 259°
2026-04-28 11:39 31.18291 121.83970 36152 ft 385 kts 259°
2026-04-28 11:40 31.17140 121.77859 36160 ft 385 kts 262°
2026-04-28 11:40 31.16436 121.71669 36165 ft 385 kts 264°
2026-04-28 11:41 31.15782 121.65512 36154 ft 385 kts 264°
2026-04-28 11:41 31.15105 121.59304 36151 ft 386 kts 264°
2026-04-28 11:42 31.14417 121.53094 36148 ft 386 kts 264°
2026-04-28 11:42 31.13724 121.46885 36157 ft 386 kts 263°
2026-04-28 11:43 31.13027 121.40663 36157 ft 386 kts 263°
2026-04-28 11:43 31.12299 121.34453 36156 ft 387 kts 261°
2026-04-28 11:44 31.10821 121.28411 36151 ft 387 kts 255°
2026-04-28 11:44 31.09234 121.22416 36159 ft 387 kts 255°
2026-04-28 11:45 31.07667 121.16415 36147 ft 386 kts 255°
2026-04-28 11:45 31.06154 121.10405 36141 ft 386 kts 256°
2026-04-28 11:46 31.04705 121.04388 36134 ft 385 kts 256°
2026-04-28 11:46 31.03249 120.98376 36129 ft 385 kts 256°
2026-04-28 11:47 31.01786 120.92377 36135 ft 385 kts 256°
2026-04-28 11:47 31.00328 120.86418 36132 ft 385 kts 256°
2026-04-28 11:48 30.98849 120.80391 36122 ft 384 kts 256°
2026-04-28 11:48 30.97390 120.74456 36132 ft 384 kts 256°
2026-04-28 11:49 30.95930 120.68470 36130 ft 384 kts 256°
2026-04-28 11:49 30.94470 120.62476 36124 ft 385 kts 256°
2026-04-28 11:50 30.93005 120.56479 36126 ft 385 kts 256°
2026-04-28 11:50 30.91534 120.50471 36136 ft 386 kts 256°
2026-04-28 11:51 30.89444 120.44725 36146 ft 392 kts 238°
2026-04-28 11:51 30.85622 120.40110 36118 ft 406 kts 219°
2026-04-28 11:52 30.80734 120.36737 36136 ft 410 kts 217°
2026-04-28 11:52 30.75788 120.33434 36125 ft 410 kts 217°
2026-04-28 11:53 30.70862 120.30096 36122 ft 410 kts 217°
2026-04-28 11:53 30.65953 120.26744 36099 ft 409 kts 217°
2026-04-28 11:54 30.61047 120.23392 36117 ft 409 kts 217°
2026-04-28 11:54 30.56147 120.20048 36129 ft 409 kts 217°
2026-04-28 11:55 30.52072 120.17270 36123 ft 409 kts 217°
2026-04-28 11:55 30.47164 120.13929 36129 ft 409 kts 217°
2026-04-28 11:56 30.41462 120.10046 36125 ft 409 kts 217°
2026-04-28 11:56 30.37348 120.07246 36129 ft 409 kts 217°
2026-04-28 11:57 30.32439 120.03907 36135 ft 410 kts 217°
2026-04-28 11:57 30.27522 120.00567 36127 ft 410 kts 217°
2026-04-28 11:58 30.22600 119.97228 36134 ft 410 kts 217°
2026-04-28 11:58 30.17706 119.93911 36135 ft 411 kts 217°
2026-04-28 11:59 30.12769 119.90569 36137 ft 412 kts 217°
2026-04-28 11:59 30.07825 119.87227 36134 ft 411 kts 217°
2026-04-28 12:00 30.02887 119.83892 36112 ft 411 kts 217°
2026-04-28 12:00 29.97953 119.80564 36131 ft 410 kts 217°
2026-04-28 12:01 29.93026 119.77244 36125 ft 410 kts 217°
2026-04-28 12:01 29.88109 119.73936 36134 ft 409 kts 217°
2026-04-28 12:02 29.83202 119.70635 36122 ft 409 kts 217°
2026-04-28 12:02 29.78304 119.67333 36116 ft 406 kts 219°
2026-04-28 12:03 29.74070 119.63219 36111 ft 394 kts 233°
2026-04-28 12:03 29.70475 119.58463 36097 ft 394 kts 233°
2026-04-28 12:04 29.66851 119.53732 36115 ft 395 kts 233°
2026-04-28 12:04 29.63205 119.49008 36113 ft 395 kts 232°
2026-04-28 12:05 29.59560 119.44331 36088 ft 396 kts 232°
2026-04-28 12:05 29.55849 119.39584 36073 ft 397 kts 232°
2026-04-28 12:06 29.52171 119.34893 36078 ft 399 kts 232°
2026-04-28 12:06 29.48442 119.30169 36075 ft 400 kts 232°
2026-04-28 12:07 29.44703 119.25436 36051 ft 400 kts 232°
2026-04-28 12:07 29.40961 119.20700 36065 ft 401 kts 232°
2026-04-28 12:08 29.37208 119.15954 36059 ft 402 kts 232°
2026-04-28 12:08 29.33447 119.11200 36058 ft 403 kts 232°
2026-04-28 12:09 29.29688 119.06438 36049 ft 403 kts 232°
2026-04-28 12:09 29.25927 119.01680 36052 ft 403 kts 232°
2026-04-28 12:10 29.22158 118.96928 36030 ft 402 kts 232°
2026-04-28 12:10 29.18387 118.92195 36036 ft 402 kts 232°
2026-04-28 12:11 29.14610 118.87458 36027 ft 403 kts 232°
2026-04-28 12:11 29.10853 118.82748 36036 ft 404 kts 232°
2026-04-28 12:12 29.07062 118.78000 36012 ft 405 kts 232°
2026-04-28 12:12 29.03261 118.73246 35980 ft 405 kts 232°
2026-04-28 12:13 28.99464 118.68504 35992 ft 404 kts 232°
2026-04-28 12:13 28.95666 118.63763 36003 ft 405 kts 232°
2026-04-28 12:14 28.91862 118.59022 35978 ft 405 kts 232°
2026-04-28 12:14 28.88060 118.54288 35982 ft 404 kts 232°
2026-04-28 12:15 28.84266 118.49571 35936 ft 403 kts 232°
2026-04-28 12:15 28.80478 118.44865 35958 ft 402 kts 231°
2026-04-28 12:16 28.76696 118.40173 35970 ft 402 kts 231°
2026-04-28 12:16 28.72917 118.35490 35980 ft 401 kts 232°
2026-04-28 12:17 28.69142 118.30817 35971 ft 401 kts 232°
2026-04-28 12:17 28.65367 118.26149 35955 ft 400 kts 232°
2026-04-28 12:18 28.61597 118.21493 35948 ft 400 kts 231°
2026-04-28 12:18 28.57851 118.16871 35952 ft 400 kts 231°
2026-04-28 12:19 28.54081 118.12225 35954 ft 400 kts 231°
2026-04-28 12:19 28.50303 118.07574 35946 ft 400 kts 231°
2026-04-28 12:20 28.46519 118.02920 35950 ft 401 kts 231°
2026-04-28 12:20 28.42728 117.98264 35929 ft 401 kts 231°
2026-04-28 12:21 28.38895 117.93643 35946 ft 402 kts 230°
2026-04-28 12:21 28.35003 117.89073 35945 ft 403 kts 230°
2026-04-28 12:22 28.31104 117.84496 35942 ft 403 kts 230°
2026-04-28 12:22 28.27208 117.79913 35944 ft 404 kts 230°
2026-04-28 12:23 28.23306 117.75323 35943 ft 404 kts 230°
2026-04-28 12:23 28.19403 117.70736 35931 ft 404 kts 230°
2026-04-28 12:24 28.15497 117.66150 35937 ft 404 kts 230°
2026-04-28 12:24 28.11592 117.61569 35935 ft 404 kts 230°
2026-04-28 12:25 28.07683 117.56989 35933 ft 404 kts 230°
2026-04-28 12:25 28.03770 117.52411 35921 ft 404 kts 230°
2026-04-28 12:26 27.99870 117.47849 35931 ft 402 kts 230°
2026-04-28 12:26 27.95983 117.43305 35932 ft 402 kts 230°
2026-04-28 12:27 27.92087 117.38754 35919 ft 404 kts 230°
2026-04-28 12:27 27.88172 117.34186 35923 ft 405 kts 230°
2026-04-28 12:28 27.84252 117.29618 35913 ft 404 kts 230°
2026-04-28 12:28 27.80368 117.25086 35905 ft 404 kts 229°
2026-04-28 12:29 27.74480 117.18250 35918 ft 405 kts 229°
2026-04-28 12:30 27.70535 117.13679 35922 ft 407 kts 229°
2026-04-28 12:30 27.66575 117.09081 35891 ft 409 kts 229°
2026-04-28 12:31 27.62602 117.04476 35912 ft 410 kts 229°
2026-04-28 12:31 27.58617 116.99865 35882 ft 411 kts 229°
2026-04-28 12:32 27.54623 116.95246 35890 ft 412 kts 229°
2026-04-28 12:32 27.50624 116.90623 35907 ft 412 kts 229°
2026-04-28 12:33 27.46654 116.85976 35902 ft 412 kts 230°
2026-04-28 12:33 27.42695 116.81336 35897 ft 410 kts 230°
2026-04-28 12:34 27.38749 116.76721 35893 ft 408 kts 230°
2026-04-28 12:34 27.34823 116.72137 35890 ft 406 kts 230°
2026-04-28 12:35 27.30941 116.67609 35897 ft 404 kts 230°
2026-04-28 12:35 27.27043 116.63067 35905 ft 403 kts 229°
2026-04-28 12:36 27.23152 116.58537 35898 ft 403 kts 229°
2026-04-28 12:36 27.19269 116.53992 35907 ft 403 kts 230°
2026-04-28 12:37 27.15460 116.49371 35888 ft 403 kts 231°
2026-04-28 12:37 27.11657 116.44740 35895 ft 403 kts 231°
2026-04-28 12:38 27.07844 116.40118 35907 ft 404 kts 230°
2026-04-28 12:38 27.04014 116.35488 35902 ft 405 kts 230°
2026-04-28 12:39 27.00173 116.30852 35899 ft 406 kts 230°
2026-04-28 12:39 26.96326 116.26213 35898 ft 406 kts 230°
2026-04-28 12:40 26.92472 116.21571 35893 ft 407 kts 230°
2026-04-28 12:40 26.88632 116.16919 35889 ft 407 kts 230°
2026-04-28 12:41 26.84802 116.12252 35899 ft 407 kts 230°
2026-04-28 12:41 26.80960 116.07576 35895 ft 408 kts 230°
2026-04-28 12:42 26.77114 116.02902 35898 ft 408 kts 230°
2026-04-28 12:42 26.73263 115.98229 35901 ft 408 kts 230°
2026-04-28 12:43 26.69437 115.93592 35895 ft 408 kts 230°
2026-04-28 12:43 26.65580 115.88922 35887 ft 409 kts 230°
2026-04-28 12:44 26.61726 115.84261 35887 ft 408 kts 230°
2026-04-28 12:44 26.57868 115.79601 35901 ft 408 kts 230°
2026-04-28 12:45 26.54017 115.74953 35899 ft 408 kts 230°
2026-04-28 12:45 26.50165 115.70308 35891 ft 407 kts 230°
2026-04-28 12:46 26.46322 115.65680 35891 ft 406 kts 230°
2026-04-28 12:46 26.42507 115.61092 35891 ft 403 kts 230°
2026-04-28 12:47 26.39296 115.57231 35891 ft 407 kts 230°
2026-04-28 12:47 26.35453 115.52615 35890 ft 411 kts 230°
2026-04-28 12:48 26.31551 115.47934 35883 ft 413 kts 230°
2026-04-28 12:48 26.27648 115.43259 35871 ft 408 kts 230°
2026-04-28 12:49 26.23811 115.38670 35873 ft 404 kts 230°
2026-04-28 12:49 26.19971 115.34076 35885 ft 406 kts 230°
2026-04-28 12:50 26.16116 115.29469 35887 ft 407 kts 230°
2026-04-28 12:50 26.12249 115.24855 35871 ft 408 kts 230°
2026-04-28 12:51 26.08380 115.20244 35874 ft 408 kts 230°
2026-04-28 12:51 26.04511 115.15638 35875 ft 407 kts 230°
2026-04-28 12:52 26.00650 115.11044 35873 ft 406 kts 230°
2026-04-28 12:52 25.96798 115.06466 35867 ft 404 kts 230°
2026-04-28 12:53 25.92962 115.01913 35873 ft 403 kts 230°
2026-04-28 12:53 25.89130 114.97366 35879 ft 403 kts 230°
2026-04-28 12:54 25.85302 114.92830 35869 ft 402 kts 230°
2026-04-28 12:54 25.81083 114.88742 35872 ft 408 kts 215°
2026-04-28 12:55 25.75858 114.86178 35870 ft 418 kts 199°
2026-04-28 12:55 25.70168 114.84763 35879 ft 420 kts 198°
2026-04-28 12:56 25.64454 114.83403 35880 ft 420 kts 198°
2026-04-28 12:56 25.58779 114.82021 35879 ft 421 kts 198°
2026-04-28 12:57 25.53060 114.80607 35870 ft 421 kts 198°
2026-04-28 12:57 25.47333 114.79186 35883 ft 422 kts 198°
2026-04-28 12:58 25.41604 114.77765 35881 ft 422 kts 198°
2026-04-28 12:58 25.35864 114.76343 35883 ft 423 kts 198°
2026-04-28 12:59 25.30116 114.74922 35880 ft 423 kts 198°
2026-04-28 12:59 25.24365 114.73501 35874 ft 423 kts 197°
2026-04-28 13:00 25.18612 114.72081 35884 ft 424 kts 197°
2026-04-28 13:00 25.12861 114.70662 35884 ft 424 kts 197°
2026-04-28 13:01 25.07110 114.69246 35891 ft 424 kts 197°
2026-04-28 13:01 25.01346 114.67826 35887 ft 425 kts 197°
2026-04-28 13:02 24.95576 114.66407 35881 ft 425 kts 197°
2026-04-28 13:02 24.89803 114.64989 35884 ft 425 kts 197°
2026-04-28 13:03 24.84023 114.63575 35902 ft 425 kts 197°
2026-04-28 13:03 24.78241 114.62174 35904 ft 426 kts 197°
2026-04-28 13:04 24.72448 114.60765 35894 ft 426 kts 198°
2026-04-28 13:04 24.67060 114.58388 35902 ft 417 kts 214°
2026-04-28 13:05 24.62055 114.55155 35903 ft 417 kts 214°
2026-04-28 13:05 24.57038 114.51938 35903 ft 417 kts 214°
2026-04-28 13:05 24.54521 114.50339 35753 ft 420 kts 213°
2026-04-28 13:06 24.51977 114.48729 35351 ft 420 kts 213°
2026-04-28 13:06 24.49457 114.47139 34898 ft 416 kts 213°
2026-04-28 13:06 24.46956 114.45561 34468 ft 414 kts 213°
2026-04-28 13:06 24.44463 114.43987 34036 ft 412 kts 213°
2026-04-28 13:07 24.41981 114.42422 33550 ft 411 kts 213°
2026-04-28 13:07 24.39511 114.40866 33097 ft 409 kts 213°
2026-04-28 13:07 24.37045 114.39324 32649 ft 406 kts 213°
2026-04-28 13:07 24.34600 114.37798 32236 ft 404 kts 213°
2026-04-28 13:08 24.32164 114.36279 31817 ft 401 kts 213°
2026-04-28 13:08 24.29745 114.34770 31402 ft 397 kts 213°
2026-04-28 13:08 24.27367 114.33287 30805 ft 392 kts 212°
2026-04-28 13:08 24.24978 114.31796 29727 ft 400 kts 212°
2026-04-28 13:09 24.22537 114.30270 28585 ft 406 kts 212°
2026-04-28 13:09 24.20093 114.28746 27761 ft 403 kts 212°
2026-04-28 13:09 24.17675 114.27240 27097 ft 396 kts 212°
2026-04-28 13:09 24.15301 114.25762 26453 ft 390 kts 212°
2026-04-28 13:10 24.12959 114.24303 25777 ft 385 kts 212°
2026-04-28 13:10 24.10641 114.22860 25109 ft 381 kts 212°
2026-04-28 13:10 24.08351 114.21433 24445 ft 377 kts 213°
2026-04-28 13:10 24.06180 114.19869 23810 ft 371 kts 218°
2026-04-28 13:11 24.04132 114.18186 23136 ft 366 kts 219°
2026-04-28 13:11 24.02129 114.16490 22411 ft 362 kts 220°
2026-04-28 13:11 24.00147 114.14819 21711 ft 358 kts 219°
2026-04-28 13:11 23.98178 114.13178 21039 ft 354 kts 219°
2026-04-28 13:12 23.96220 114.11563 20388 ft 351 kts 219°
2026-04-28 13:12 23.94325 114.10015 19835 ft 345 kts 219°
2026-04-28 13:12 23.92389 114.08437 19139 ft 342 kts 219°
2026-04-28 13:12 23.90480 114.06883 18459 ft 341 kts 219°
2026-04-28 13:13 23.88612 114.05363 17813 ft 337 kts 218°
2026-04-28 13:13 23.86742 114.03842 17129 ft 333 kts 218°
2026-04-28 13:13 23.84890 114.02339 16469 ft 330 kts 218°
2026-04-28 13:13 23.83058 114.00855 15837 ft 326 kts 218°
2026-04-28 13:14 23.81245 113.99387 15217 ft 322 kts 218°
2026-04-28 13:14 23.79451 113.97934 14608 ft 319 kts 218°
2026-04-28 13:14 23.77678 113.96498 14009 ft 316 kts 218°
2026-04-28 13:14 23.75916 113.95072 13357 ft 314 kts 218°
2026-04-28 13:15 23.74171 113.93659 12817 ft 308 kts 219°
2026-04-28 13:15 23.72453 113.92269 12412 ft 307 kts 218°
2026-04-28 13:15 23.70740 113.90883 12001 ft 306 kts 218°
2026-04-28 13:15 23.69034 113.89502 11601 ft 303 kts 218°
2026-04-28 13:16 23.67348 113.88139 11245 ft 301 kts 218°
2026-04-28 13:16 23.65720 113.86728 10860 ft 297 kts 227°
2026-04-28 13:16 23.64648 113.84833 10519 ft 295 kts 250°
2026-04-28 13:16 23.64243 113.82662 10325 ft 290 kts 265°
2026-04-28 13:17 23.64471 113.80507 10249 ft 282 kts 280°
2026-04-28 13:17 23.64941 113.78463 10146 ft 274 kts 281°
2026-04-28 13:17 23.65422 113.76481 10046 ft 266 kts 281°
2026-04-28 13:17 23.65889 113.74544 9854 ft 263 kts 281°
2026-04-28 13:18 23.66341 113.72648 9764 ft 254 kts 281°
2026-04-28 13:18 23.66776 113.70807 9626 ft 247 kts 281°
2026-04-28 13:18 23.67193 113.69021 9528 ft 239 kts 281°
2026-04-28 13:18 23.67596 113.67290 9419 ft 232 kts 280°
2026-04-28 13:19 23.67985 113.65615 9313 ft 224 kts 280°
2026-04-28 13:19 23.68363 113.63992 9216 ft 219 kts 280°
2026-04-28 13:19 23.68736 113.62370 9011 ft 222 kts 280°
2026-04-28 13:19 23.69111 113.60754 8821 ft 220 kts 280°
2026-04-28 13:20 23.69488 113.59121 8589 ft 225 kts 280°
2026-04-28 13:20 23.69878 113.57426 8348 ft 236 kts 279°
2026-04-28 13:20 23.70285 113.55662 8082 ft 243 kts 280°
2026-04-28 13:20 23.70698 113.53880 7843 ft 248 kts 280°
2026-04-28 13:21 23.71120 113.52055 7578 ft 248 kts 280°
2026-04-28 13:21 23.71544 113.50223 7245 ft 251 kts 280°
2026-04-28 13:21 23.71969 113.48386 6966 ft 247 kts 280°
2026-04-28 13:21 23.72385 113.46588 6698 ft 242 kts 280°
2026-04-28 13:22 23.72792 113.44829 6429 ft 236 kts 280°
2026-04-28 13:22 23.73078 113.43095 6164 ft 229 kts 262°
2026-04-28 13:22 23.72478 113.41562 5930 ft 224 kts 223°
2026-04-28 13:22 23.71131 113.40692 5709 ft 230 kts 204°
2026-04-28 13:23 23.69648 113.40009 5401 ft 232 kts 203°
2026-04-28 13:23 23.68149 113.39361 5140 ft 231 kts 200°
2026-04-28 13:23 23.66653 113.38839 5099 ft 222 kts 197°
2026-04-28 13:23 23.65154 113.38397 4847 ft 223 kts 195°
2026-04-28 13:24 23.63644 113.37981 4564 ft 225 kts 195°
2026-04-28 13:24 23.62118 113.37568 4258 ft 226 kts 194°
2026-04-28 13:24 23.60592 113.37156 3972 ft 226 kts 194°
2026-04-28 13:24 23.59075 113.36748 3676 ft 222 kts 194°
2026-04-28 13:25 23.57597 113.36349 3408 ft 215 kts 194°
2026-04-28 13:25 23.56178 113.35965 3151 ft 205 kts 194°
2026-04-28 13:25 23.54824 113.35598 2866 ft 195 kts 193°
2026-04-28 13:25 23.53535 113.35250 2642 ft 187 kts 193°
2026-04-28 13:26 23.52301 113.34917 2410 ft 178 kts 193°
2026-04-28 13:26 23.51115 113.34596 2173 ft 171 kts 192°
2026-04-28 13:26 23.49984 113.34290 1929 ft 164 kts 192°
2026-04-28 13:26 23.48926 113.34004 1767 ft 151 kts 191°
2026-04-28 13:27 23.47959 113.33743 1553 ft 136 kts 191°
2026-04-28 13:27 23.47057 113.33500 1378 ft 131 kts 191°
2026-04-28 13:27 23.46183 113.33265 1223 ft 130 kts 192°
2026-04-28 13:27 23.45297 113.33025 1054 ft 133 kts 191°
2026-04-28 13:28 23.44374 113.32776 897 ft 139 kts 192°
2026-04-28 13:28 23.43431 113.32522 723 ft 140 kts 192°
2026-04-28 13:28 23.42477 113.32264 552 ft 144 kts 192°
2026-04-28 13:28 23.41492 113.32002 349 ft 147 kts 193°
2026-04-28 13:29 23.40504 113.31730 170 ft 146 kts 194°
2026-04-28 13:29 23.39534 113.31467 62 ft 135 kts 193°
2026-04-28 13:29 23.38717 113.31249 51 ft 104 kts 194°
2026-04-28 13:29 23.38163 113.31099 53 ft 60 kts 194°
2026-04-28 13:30 23.37906 113.31007 57 ft 32 kts 214°
2026-04-28 13:30 23.37778 113.30893 54 ft 17 kts 221°
2026-04-28 13:30 23.37801 113.30801 53 ft 17 kts 358°
2026-04-28 13:30 23.37917 113.30831 52 ft 18 kts 20°
2026-04-28 13:31 23.38150 113.30892 57 ft 17 kts 13°
2026-04-28 13:31 23.38265 113.30922 51 ft 18 kts 13°
2026-04-28 13:31 23.38400 113.30955 54 ft 22 kts 12°
2026-04-28 13:32 23.38559 113.30992 53 ft 25 kts 17°
2026-04-28 13:32 23.38735 113.31048 51 ft 28 kts 14°
2026-04-28 13:32 23.38931 113.31101 56 ft 26 kts 13°
2026-04-28 13:32 23.39053 113.31133 54 ft 17 kts 14°
2026-04-28 13:33 23.39121 113.31066 57 ft 17 kts 283°
2026-04-28 13:33 23.39150 113.30929 59 ft 20 kts 283°
2026-04-28 13:33 23.39170 113.30785 57 ft 18 kts 239°
2026-04-28 13:33 23.39042 113.30732 55 ft 22 kts 193°
2026-04-28 13:34 23.38944 113.30692 56 ft 13 kts 239°
2026-04-28 13:34 23.38946 113.30622 57 ft 15 kts 284°
2026-04-28 13:34 23.38983 113.30451 54 ft 15 kts 283°
2026-04-28 13:34 23.38999 113.30382 57 ft 10 kts 285°
2026-04-28 13:35 23.39016 113.30314 57 ft 4 kts 298°
2026-04-28 13:35 23.39057 113.30303 53 ft 8 kts
2026-04-28 13:35 23.39088 113.30310 54 ft 0 kts 13°